Theta_e
287 287 287 286 286 286 285 285 285 285 285 285 284 284 284 284 284 283 283 282 281 281 281 280 280 280 280 279 279 279 279 278 278 278 278 278 277 277 277 276 276 276
286 286 286 286 285 285 285 285 285 285 284 284 284 284 284 284 283 283 282 281 281 280 280 280 280 280 279 279 279 278 278 278 277 279 277 277 277 277 277 276 276 276
286 285 285 285 285 284 284 284 284 284 284 284 283 283 283 283 282 282 282 281 281 280 280 280 279 279 279 278 278 278 278 277 277 277 277 277 276 276 276 276 276 276
286 286 286 285 285 284 283 283 283 283 283 282 283 283 283 283 282 282 281 281 280 279 279 279 279 279 278 278 278 277 277 277 277 277 277 276 276 276 275 276 276 276
286 285 285 285 285 284 282 283 282 283 282 282 282 281 282 281 281 281 281 280 280 279 279 279 278 278 278 278 277 277 277 276 276 276 276 275 276 276 276 276 275 275
285 285 285 285 284 283 282 282 283 282 282 281 281 281 281 281 281 280 280 280 279 279 278 278 278 278 278 277 277 277 276 276 276 276 275 275 275 275 276 276 275 274
285 285 284 284 283 283 283 282 282 282 282 281 280 281 281 280 280 280 280 280 279 279 278 278 277 277 277 277 276 276 276 275 275 275 275 274 274 274 275 275 274 274
285 284 284 283 283 282 282 282 282 281 281 280 280 280 280 280 280 280 279 279 278 278 278 277 277 277 277 276 276 275 275 275 275 275 274 274 274 273 274 274 274 273
285 283 283 283 282 282 282 282 281 281 280 280 280 280 280 280 280 279 279 278 278 278 277 277 277 276 276 276 275 275 274 274 274 274 274 273 273 273 273 273 272 272
284 283 282 282 282 282 282 282 281 281 280 280 280 280 279 279 279 279 278 278 277 277 276 276 276 276 275 275 275 275 274 274 274 274 273 273 273 272 272 272 271 271
283 283 282 282 282 282 282 281 281 280 279 279 279 279 279 278 278 278 277 277 277 276 276 275 275 275 275 274 274 274 274 274 273 273 273 272 272 272 273 271 271 270
283 283 282 282 282 282 282 281 281 280 279 279 279 278 278 278 277 277 277 276 276 275 275 275 275 275 274 274 274 274 273 273 273 272 272 271 271 271 271 271 270 270
283 283 283 282 282 282 282 281 280 279 279 279 278 278 277 277 277 276 276 276 275 275 275 274 274 274 274 273 273 272 272 272 271 271 271 270 270 270 271 271 271 271
283 283 283 282 282 282 281 281 280 279 279 279 278 277 277 277 276 276 275 275 275 274 274 274 273 273 273 272 272 271 271 271 270 270 270 270 270 271 271 271 271 271
283 283 282 281 281 281 280 280 279 279 278 278 277 277 277 277 276 276 275 274 274 273 273 273 273 272 272 272 271 271 270 270 270 270 270 269 270 270 271 271 271 271
282 282 281 281 281 280 280 279 278 278 278 277 277 277 276 276 275 275 274 274 273 272 272 272 272 272 274 276 275 271 270 270 269 269 270 270 270 270 270 271 271 272
281 281 281 280 280 280 279 278 278 277 277 276 276 276 275 274 274 274 273 273 272 272 271 271 272 272 277 278 278 276 271 269 269 269 270 270 270 270 271 272 272 273
281 281 280 280 279 279 278 278 277 276 276 276 275 274 274 273 273 273 273 272 272 272 271 271 271 275 279 280 279 278 274 270 270 270 270 270 271 271 272 273 273 274
281 280 279 279 279 278 277 276 276 275 275 274 274 274 273 272 273 273 272 272 272 271 271 271 270 276 280 280 280 279 277 273 271 271 271 271 272 272 273 273 274 274
280 280 279 279 278 277 276 275 275 275 275 275 274 273 273 273 273 272 272 271 271 271 271 271 270 276 280 281 281 280 278 275 271 272 272 273 273 273 274 274 274 273
279 279 278 278 277 277 275 275 274 275 274 274 274 273 273 272 272 271 271 271 270 271 270 270 270 277 281 282 282 281 279 276 272 273 273 273 274 274 274 274 274 273
278 278 278 277 276 275 275 275 274 274 274 274 273 273 273 272 272 271 270 270 270 270 269 269 270 278 281 282 282 282 282 275 273 273 273 273 274 274 274 274 273 272
278 278 277 276 275 274 274 274 274 274 274 273 272 272 272 271 271 271 270 269 269 269 269 269 269 277 281 281 282 282 281 275 274 273 273 273 273 273 273 273 272 272
278 277 277 276 275 274 274 275 275 275 274 273 272 271 271 270 270 269 269 269 269 269 269 269 269 276 281 281 281 282 279 274 274 273 272 272 272 272 272 271 272 274
277 277 277 276 275 275 275 275 274 274 273 272 272 271 270 270 269 269 268 269 269 269 272 270 269 275 281 281 281 281 278 274 273 272 271 271 271 271 272 271 271 273
276 277 277 276 275 275 275 275 274 273 271 271 271 270 270 269 269 269 268 268 269 269 270 270 270 273 277 280 280 281 280 274 273 272 270 271 271 270 270 271 271 272
Wind_Speed
13 12 14 12 12 11 11 12 11 12 12 11 12 12 13 13 13 14 13 11 10 10 9 9 9 9 8 8 7 7 7 7 6 5 6 7 7 7 7 5 4 4
16 14 11 10 10 10 10 11 12 13 12 12 11 9 8 10 12 14 14 13 11 11 10 10 9 9 9 8 8 8 7 6 7 4 6 7 6 7 6 5 4 3
13 13 15 15 15 13 11 10 10 11 11 11 9 9 9 9 11 12 12 13 13 12 11 10 10 9 9 9 8 8 8 8 7 6 6 7 6 6 5 5 3 3
16 16 15 15 12 12 10 9 10 9 9 9 11 9 9 9 10 12 12 13 13 12 11 11 11 10 10 10 9 8 8 7 7 6 6 5 6 6 5 5 3 3
16 15 13 13 11 10 10 12 13 12 12 11 8 9 10 10 11 11 12 12 12 12 12 12 11 11 10 10 10 9 8 8 7 7 7 6 6 6 5 5 5 4
12 14 14 13 13 12 12 13 13 12 12 11 13 10 11 11 12 13 12 13 12 13 13 12 12 11 11 10 9 9 9 8 7 7 7 7 6 5 5 6 5 5
16 15 15 13 12 12 13 12 11 12 12 11 9 12 12 12 12 12 12 12 12 13 14 14 13 12 10 10 9 9 8 8 8 8 8 6 7 6 5 5 5 4
14 12 12 11 13 12 13 12 12 12 12 10 14 12 13 14 14 12 11 12 11 11 12 12 12 12 11 10 10 10 9 7 8 8 8 7 7 7 6 5 5 5
13 11 12 13 14 12 13 13 12 11 11 14 13 12 12 13 14 13 13 12 11 11 10 10 11 11 10 10 10 11 11 9 9 9 9 9 9 8 7 6 6 5
13 12 13 13 15 14 15 13 12 12 12 13 12 11 13 11 12 13 12 13 12 11 11 10 10 9 10 10 11 11 11 11 10 9 8 8 8 8 8 7 7 6
14 13 15 16 17 14 16 15 14 13 12 14 12 12 13 12 11 12 13 13 13 13 12 11 11 11 11 11 10 10 10 10 10 9 8 8 8 8 8 8 7 7
16 15 17 18 18 16 16 16 14 14 14 12 14 14 13 12 14 12 13 14 12 12 12 12 11 11 12 12 11 10 9 8 8 9 8 8 8 7 7 7 7 6
15 17 18 17 16 16 13 13 13 13 14 15 13 15 15 14 13 14 12 13 13 12 12 12 12 11 11 10 10 10 10 10 9 9 8 7 6 7 6 6 6 6
16 17 15 14 12 11 11 12 12 12 13 12 12 14 15 15 16 15 12 11 12 12 12 11 11 11 10 10 10 10 10 9 9 9 9 7 7 7 7 7 7 7
15 13 11 11 12 13 12 13 14 13 12 12 13 13 12 13 13 14 13 12 11 11 11 10 11 11 10 11 12 11 10 10 10 10 9 9 8 8 8 8 7 7
14 12 13 13 14 15 15 14 14 13 13 13 14 14 13 12 13 13 14 14 14 12 11 11 10 9 12 20 15 12 11 9 8 8 9 9 9 8 8 8 8 7
12 13 13 15 16 15 13 14 14 13 13 13 13 13 14 13 13 14 13 13 14 14 14 12 10 10 20 21 21 19 12 10 10 9 9 9 9 9 8 8 8 8
13 13 13 13 12 14 14 14 13 13 14 14 13 14 13 12 14 15 14 13 12 12 13 12 11 15 23 23 22 22 17 11 10 10 9 9 9 9 8 8 8 7
11 12 12 12 13 13 12 12 14 14 14 14 16 14 12 14 15 14 14 13 13 15 14 12 11 19 24 25 24 24 23 16 10 9 9 9 9 10 9 9 8 8
11 11 13 13 12 12 12 14 14 16 15 14 12 12 14 14 13 15 13 14 14 15 13 12 13 20 26 25 24 25 24 17 9 11 10 10 11 10 9 10 10 9
12 13 13 13 13 13 13 14 15 13 14 14 14 15 16 16 16 15 14 13 12 12 11 12 11 21 24 24 24 25 24 17 10 10 9 9 10 10 10 10 11 9
14 14 13 12 13 13 14 15 15 16 16 13 12 11 10 9 9 10 12 13 12 11 10 10 10 21 23 25 25 25 26 12 10 10 9 9 9 10 11 10 9 7
12 13 12 13 13 14 15 15 15 14 13 11 12 12 12 12 12 12 10 11 12 12 12 10 10 19 25 25 24 25 19 9 10 9 9 8 10 11 9 7 6 6
9 10 12 13 13 16 16 14 12 10 12 11 14 13 13 12 10 9 9 10 13 13 12 12 11 16 25 24 24 26 16 10 10 9 8 7 6 5 3 3 5 11
7 9 11 12 14 14 12 13 13 13 10 9 9 9 9 8 9 9 9 9 9 10 13 12 10 14 25 23 25 25 16 8 9 8 8 7 7 6 6 4 6 8
6 8 9 10 12 10 10 10 9 9 11 11 9 9 9 9 9 9 11 9 9 10 11 9 10 10 16 24 23 24 20 10 7 9 9 9 8 7 6 6 6 6
Wind_Direction
199 198 202 198 203 199 192 193 195 195 197 195 199 199 193 186 171 177 176 171 174 172 172 173 169 167 163 161 161 158 164 167 166 167 157 145 142 143 147 152 155 164
204 201 200 200 202 200 199 194 193 195 197 198 199 194 195 183 181 174 171 170 170 174 172 172 173 169 164 162 162 159 161 163 167 176 156 148 148 141 148 154 161 165
200 200 201 201 202 198 195 191 191 197 194 196 188 189 185 185 180 179 171 168 169 170 172 172 170 170 165 161 161 161 165 165 170 172 156 152 142 139 146 145 147 163
203 203 203 205 199 195 187 182 193 193 188 186 195 183 178 181 180 179 175 170 168 170 171 171 172 167 166 164 161 165 167 171 168 161 150 140 141 138 145 145 153 159
203 203 205 204 200 190 178 189 193 192 191 190 170 176 174 176 179 182 180 176 170 169 169 171 168 170 167 166 166 163 167 165 168 162 154 146 148 143 152 151 162 180
205 205 204 200 196 187 189 194 194 188 187 180 186 169 180 176 180 183 182 178 176 170 170 170 172 172 171 168 165 167 163 163 170 160 154 152 151 150 155 160 168 179
204 201 202 198 194 193 194 194 188 187 187 185 161 184 174 178 182 184 183 180 177 176 174 174 172 172 172 166 166 163 164 162 164 162 156 156 150 155 155 156 163 171
206 201 198 193 197 194 197 194 190 186 182 169 184 182 176 179 180 178 179 179 180 182 180 177 175 171 167 165 163 162 162 164 168 164 162 156 154 160 158 161 165 171
201 195 191 195 195 197 199 195 191 184 177 182 183 180 181 180 178 174 175 175 178 181 182 181 176 170 168 166 167 166 167 169 172 170 165 161 162 165 162 159 164 175
202 197 191 194 198 199 199 194 186 185 180 183 182 176 178 181 174 173 171 175 176 177 181 180 175 173 169 172 170 170 171 171 170 169 163 161 160 160 162 167 171 177
204 196 197 198 201 199 198 190 188 182 179 181 176 179 180 172 175 172 172 174 178 178 176 177 179 174 173 173 175 174 172 166 164 160 160 160 162 163 166 166 172 178
203 198 202 202 202 200 197 192 188 182 179 180 177 177 175 178 173 176 176 176 175 176 176 177 177 179 178 175 173 168 164 162 158 158 158 160 161 165 164 169 174 177
203 204 204 203 201 199 194 189 187 183 180 182 178 175 174 174 179 176 180 175 174 171 177 176 176 177 177 174 169 166 164 161 158 156 156 153 159 161 164 170 173 178
207 208 204 202 199 195 191 189 183 182 185 179 173 176 178 177 177 179 176 173 172 173 175 173 173 175 175 172 169 167 165 161 159 155 155 153 155 164 171 178 184 189
206 203 198 193 190 189 186 184 185 183 178 175 178 179 179 180 176 173 169 172 171 172 170 173 176 179 176 172 168 170 165 161 159 158 154 155 159 170 179 182 189 198
198 193 191 189 187 188 188 184 180 178 178 178 181 180 177 175 175 175 175 173 170 170 171 175 181 179 182 179 174 166 163 158 155 157 157 158 162 169 182 189 194 197
191 194 189 191 191 186 183 179 179 177 178 179 178 178 177 175 173 174 176 175 173 171 174 179 181 182 183 181 176 169 160 160 159 160 158 160 166 172 178 186 191 198
195 192 191 193 183 186 181 181 173 173 178 179 177 177 178 172 176 179 175 173 172 174 178 179 179 182 183 181 178 173 168 162 159 160 163 166 170 175 178 181 189 194
190 188 190 185 188 182 177 173 175 177 178 178 183 180 167 177 183 174 177 174 173 175 180 180 180 184 184 182 180 176 170 164 165 159 159 166 173 178 180 183 187 191
189 186 188 188 181 176 173 178 179 184 183 180 173 171 179 179 177 179 175 177 179 179 179 180 180 187 186 184 180 176 171 164 161 160 164 171 174 180 183 186 193 191
188 188 189 183 179 176 177 182 184 182 179 180 179 180 179 181 179 178 180 177 178 177 178 182 186 190 187 184 180 175 172 161 162 164 166 172 177 182 187 190 192 195
187 188 185 179 176 178 181 184 184 184 182 178 176 179 179 170 176 176 175 177 176 173 174 183 187 194 187 184 181 180 173 161 165 166 167 172 178 181 187 191 191 192
189 185 183 179 178 179 185 186 184 185 181 172 173 178 176 180 178 177 172 169 171 175 178 182 187 196 188 184 181 179 175 149 162 166 170 167 178 184 188 186 185 189
188 183 184 181 180 187 188 187 182 178 178 173 177 174 179 178 165 162 167 174 178 181 182 179 187 194 188 185 181 182 170 159 165 166 165 168 159 169 171 183 200 202
187 186 187 184 188 191 184 182 181 180 169 165 173 168 168 157 162 165 169 176 183 183 185 184 183 191 187 184 183 183 172 157 162 161 165 167 169 171 178 184 200 217
191 192 192 189 189 180 180 181 169 161 166 168 166 164 160 161 164 169 172 179 175 179 189 176 178 188 187 184 184 184 173 161 158 166 173 172 170 176 180 187 196 212